Regional Weather Roundup
Issued by NWS Upton, NY

Current Version | Previous Version | Text Only | Print | Product List | Glossary On
Versions: 1 2 3 4 5 6 7 8 9 10 11 12 13 14 15 16 17 18 19 20 21 22 23 24 25 26 27 28 29 30 31 32 33 34 35 36 37 38 39 40 41 42 43 44 45 46 47 48 49 50
000
ASUS41 KOKX 280307
RWROKX

REGIONAL WEATHER ROUNDUP
NATIONAL WEATHER SERVICE NEW YORK NY
1100 PM EDT FRI MAR 27 2015

NOTE: "FAIR" INDICATES FEW OR NO CLOUDS BELOW 12,000 FEET WITH NO
SIGNIFICANT WEATHER AND/OR OBSTRUCTIONS TO VISIBILITY.

NYZ071-072-176-178-NJZ106-104-280400-
NEW YORK CITY METRO AREA


CITY           SKY/WX    TMP DP  RH WIND       PRES   REMARKS
CENTRAL PARK   CLOUDY    42  24  49 VRB5      29.81R
LAGUARDIA APRT CLOUDY    43  26  51 NW8       29.79R
KENNEDY INTL   CLOUDY    44  27  51 N8        29.79R
NEWARK/LIBERTY CLOUDY    43  24  47 NW13      29.80R
BRNX BOT. GARD   N/A    N/A N/A N/A N7        29.79F
TETERBORO      CLOUDY    42  25  50 NW8       29.79R
$$

NYZ177-179-078>081-280400-
LONG ISLAND NEW YORK

CITY           SKY/WX    TMP DP  RH WIND       PRES   REMARKS
FARMINGDALE    CLOUDY    42  28  57 N6        29.77S
ISLIP          CLOUDY    39  29  67 NW5       29.75R
SHIRLEY        CLOUDY    39  31  72 N6        29.77R WCI  35
WESTHAMPTON    CLOUDY    38  33  82 N5        29.78R WCI  34
MONTAUK POINT    N/A     40  37  89 CALM      29.77S
$$

NYZ052-065-067-280400-
HUDSON VALLEY

CITY           SKY/WX    TMP DP  RH WIND       PRES   REMARKS
WHITE PLAINS   CLOUDY    39  27  62 N7        29.76F WCI  34
NEWBURGH       CLOUDY    39  27  60 VRB3      29.80S
MONTGOMERY     CLOUDY    38  25  59 NW8       29.78S WCI  32
POUGHKEEPSIE   CLOUDY    38  25  59 N8        29.80S WCI  32
ALBANY         FLURRIES  35  23  61 NW8       29.85R WCI  29
$$

NJZ001-105-106-008-010-013-015-019>022-104-280400-
NEW JERSEY

CITY           SKY/WX    TMP DP  RH WIND       PRES   REMARKS
NEWARK/LIBERTY CLOUDY    43  24  47 NW13      29.80R
TETERBORO      CLOUDY    42  25  50 NW8       29.79R
CALDWELL       CLOUDY    40  23  50 NW7       29.81R
MORRISTOWN     CLOUDY    43  25  49 N6        29.81R
SOMERVILLE     MOCLDY    40  24  53 NW7       29.79R
SUSSEX         MOCLDY    36  24  62 VRB6      29.82R WCI  31
ANDOVER          N/A     30  26  85 N3        29.81R
TRENTON        CLOUDY    40  24  53 N7        29.79S
MILLVILLE      CLOUDY    37  34  89 CALM      29.79R
ATLANTIC CITY  CLOUDY    40  32  73 N7        29.78S
WRIGHTSTOWN    CLOUDY    39  30  68 N8        29.77S WCI  34
TOMS RIVER     CLOUDY    39  30  70 N5        29.79S
BELMAR         CLOUDY    41  25  52 NW8       29.78R
$$

PAZ047>061-062-071-280400-
EASTERN PENNSYLVANIA

CITY           SKY/WX    TMP DP  RH WIND       PRES   REMARKS
PHILADELPHIA   CLOUDY    43  23  45 N12       29.81S
ALLENTOWN      PTCLDY    35  25  66 N6        29.81S WCI  30
SCRANTON       CLOUDY    34  24  67 N9        29.83R WCI  27
$$

CTZ002-004>006-009-010-012-RIZ004-006-007-MAZ004-011-015-280400-
SOUTHERN NEW ENGLAND
 IN CT

CITY           SKY/WX    TMP DP  RH WIND       PRES   REMARKS
BRADLEY INTL   MOCLDY    39  28  64 N7        29.76F WCI  34
HARTFORD       CLOUDY    41  28  60 NW7       29.77S
DANBURY        CLOUDY    38  23  55 NW8G18    29.79S WCI  32
WTRBRY/OXFORD  CLOUDY    37  21  52 N13G20    29.78S WCI  29
BRIDGEPORT     CLOUDY    39  27  62 NW5       29.78S
MERIDEN        CLOUDY    39  27  62 VRB5      29.78S
NEW HAVEN      CLOUDY    40  27  59 NW5       29.78S
CHESTER        CLOUDY    39  30  70 NW7       29.75F WCI  34
GROTON         CLOUDY    42  34  73 NW3       29.76S
WILLIMANTIC    CLOUDY    36  33  89 CALM      29.75F

 IN RI

CITY           SKY/WX    TMP DP  RH WIND       PRES   REMARKS
PROVIDENCE     CLOUDY    39  37  92 CALM      29.74F FOG
BLOCK ISLAND   CLOUDY    39  36  87 CALM      29.75S
WESTERLY       CLOUDY    40  38  93 CALM      29.76F

 IN MA

CITY           SKY/WX    TMP DP  RH WIND       PRES   REMARKS
BOSTON         CLOUDY    38  36  92 CALM      29.75F
WORCESTER      MOCLDY    37  29  72 N9        29.71F WCI  30
WESTFIELD      CLOUDY    38  27  64 N7        29.76S WCI  33
PROVINCETOWN   CLOUDY    37  34  87 N5        29.75F WCI  34
NANTUCKET      CLOUDY    38  36  92 N8        29.74R WCI  32
$$

ANZ330-335-338-340-345-350-353-355-280400-
COASTAL MARINE OBSERVATIONS


STATION/POSITION TIME  SKY/WX   TEMP    WIND        PRES    VSBY  WAVE
                                AIR SEA DIR/SP/G                  HT/PER
                 (UTC)          (F)     (DEG/KT/KT) (MB)    (MI)  (FT/S)
NY HARB ENTRANCE 0250            41 39  360/ 10/ 12 1008.0          3/11
4S FIRE IS       0203               36                N/A           4/11
20S FIRE ISLAND  0150               38              1008.3          5/11
23SW MTP         0150                                 N/A           7/11
HUDSON CANYON    NOT AVBL
EXECUTION ROCKS  NOT AVBL
WESTERN LI SOUND NOT AVBL
CENTRAL LI SOUND NOT AVBL
EASTERN LI SOUND NOT AVBL
ROBBINS REEF     0200            43     330/ 11/ 15 1007.4
$$


>>>>>>>>>>>>>>>>>>>>>>>>>>>> KEY <<<<<<<<<<<<<<<<<<<<<<<<<<<
>                                                          <
>     SKY/WX - SKY CONDITION/PRESENT WEATHER               <
>     TMP    - TEMPERATURE IN FAHRENHEIT                   <
>     DP     - DEWPOINT IN FAHRENHEIT                      <
>     RH     - RELATIVE HUMIDITY IN PERCENT                <
>     WIND   - DIRECTION AND SPEED IN MPH                  <
>     PRES   - MEAN SEA LEVEL PRESSURE IN INCHES OF HG     <
>     WCI    - WIND CHILL INDEX                            <
>     VSB    - VISIBILITY IN MILES                         <
>     HX     - HEAT INDEX                                  <
>     TC     - TEMPERATURE IN CELSIUS                      <
>     VRB    - VARIABLE WIND DIRECTION                     <
>                                                          <
>>>>>>>>>>>>>>>>>>>>>>>>>>>> KEY <<<<<<<<<<<<<<<<<<<<<<<<<<<





USA.gov is the U.S. government's official web portal to all federal, state and local government web resources and services.